Flag for India Weather past 2 weeks in Nãgpur, Maharashtra, India

86 °F

Scattered clouds.

Feels Like: 97 °F
Forecast: 68 / 95 °F
Wind: No wind

Location: Nagpur Sonegaon

Current Time: Oct 4, 2015 at 11:27:10 AM

Latest Report: Oct 4, 2015 at 10:40 AM

Visibility: 1 mi

Pressure: 29.92 "Hg

Humidity: 75%

Dew point: 77 °F

Location of NãgpurLocation

Historic Weather in Nãgpur — Graph


Nãgpur temperature yesterday

Maximum temperature yesterday: 93 °F (at 11:40 AM)
Minimum temperature yesterday: 77 °F (at 5:40 AM)
Average temperature yesterday: 84 °F

Past Weeks' High & Low Weather Summary

High95 °F (Sep 23, 1:40 PM)100% (Sep 23, 1:40 AM)29.95 "Hg (Sep 23, 1:40 AM)
Low70 °F (Sep 26, 5:40 AM)38% (Sep 26, 3:40 PM)29.59 "Hg (Sep 20, 3:40 PM)
Average83 °F75%29.80 "Hg
* Reported Sep 19 10:40 AM — Oct 4 9:40 AM, Nãgpur, Weather by CustomWeather, © 2015

Note: Actual official high and low records may vary slightly from our data, if they occured in-between our weather recording intervals... More about our weather records


Nãgpur weather history for previous 24 hours

Time TempWeatherWind HumidityBarometerVisibility
9:40 AM
Sun, Oct 4
84 °FScattered clouds.No wind74%29.92 "Hg1 mi
8:40 AM82 °FScattered clouds.3 mph79%29.92 "Hg1 mi
7:40 AM77 °FFog.No wind94%29.92 "Hg1 mi
6:40 AM75 °FScattered clouds.No wind100%29.92 "Hg1 mi
4:40 AM77 °FPassing clouds.No wind94%29.86 "Hg2 mi
3:40 AM77 °FPassing clouds.No wind89%29.83 "Hg2 mi
1:40 AM77 °FPassing clouds.No wind94%29.86 "Hg2 mi
12:40 AM77 °FPassing clouds.No wind100%29.86 "Hg2 mi
11:40 PM
Sat, Oct 3
79 °FPassing clouds.No wind94%29.86 "Hg2 mi
10:40 PM79 °FPassing clouds.No wind94%29.89 "Hg2 mi
9:40 PM81 °FPassing clouds.No wind89%29.89 "Hg2 mi
8:40 PM81 °FPassing clouds.No wind89%29.89 "Hg2 mi
7:40 PM82 °FPassing clouds.No wind84%29.83 "Hg2 mi
6:40 PM84 °FPassing clouds.5 mph79%29.83 "Hg2 mi
5:40 PM84 °FScattered clouds.5 mph79%29.80 "Hg2 mi
4:40 PM88 °FScattered clouds.5 mph70%29.80 "Hg2 mi
3:40 PM88 °FScattered clouds.6 mph70%29.80 "Hg2 mi
2:40 PM90 °FScattered clouds.6 mph67%29.80 "Hg2 mi
1:40 PM93 °FScattered clouds.No wind59%29.83 "Hg2 mi
12:40 PM93 °FScattered clouds.2 mph59%29.86 "Hg2 mi
11:40 AM93 °FScattered clouds.2 mph56%29.89 "Hg2 mi
Weather by CustomWeather, © 2015

See weather overviewHow to use our weather pages